Skip Page Navigation
NASA JPL Caltech
NASA Logo - Jet Propulsion Laboratory + View the NASA Portal
+ Center for Near-Earth Object Studies
JPL Home Earth Solar System Stars & Galaxies Technology
JPL Solar System Dynamics
BODIES ORBITS EPHEMERIDES TOOLS PHYSICAL DATA DISCOVERY FAQ SITE MAP
JPL Small-Body Database Browser
Search: [ help ]  
175494 (2006 RA52)
Classification: Main-belt Asteroid          SPK-ID: 2175494
Ephemeris | Orbit Diagram | Orbital Elements | Mission Design | Physical Parameters | Discovery Circumstances ]

[ show orbit diagram ]
Orbital Elements at Epoch 2459200.5 (2020-Dec-17.0) TDB
Reference: JPL 21 (heliocentric ecliptic J2000)
 Element Value Uncertainty (1-sigma)   Units 
e .04542379965054636 4.7601e-08  
a 2.719576778423658 1.9428e-08 au
q 2.596043267706264 1.3011e-07 au
i 3.618438813070795 5.0707e-06 deg
node 29.29112954773898 7.7012e-05 deg
peri 102.093784783337 9.4181e-05 deg
M 313.7111414287666 5.5267e-05 deg
tp 2459411.132015837359
(2021-Jul-15.63201584)
0.00025213 TDB
period 1638.137729941192
4.48
1.7554e-05
4.806e-08
d
yr
n .2197617412871161 2.3549e-09 deg/d
Q 2.843110289141053 2.031e-08 au
  Orbit Determination Parameters
   # obs. used (total)      378  
   data-arc span      7113 days (19.47 yr)  
   first obs. used      2001-08-23  
   last obs. used      2021-02-12  
   planetary ephem.      DE441  
   SB-pert. ephem.      SB441-N16  
   condition code      0  
   norm. resid. RMS      .57916  
   source      ORB  
   producer      Otto Matic  
   solution date      2021-Apr-13 21:05:38  

Additional Information
 Earth MOID = 1.6132 au 
 Jupiter MOID = 2.15828 au 
 T_jup = 3.355 
[ show covariance matrix ]

Ephemeris | Orbit Diagram | Orbital Elements | Mission Design | Physical Parameters | Discovery Circumstances ]

Physical Parameter Table
Parameter Symbol Value Units Sigma Reference Notes
absolute magnitude H 16.13   n/a MPCxxxxx  

175494 (2006 RA52)          Discovered 2006-Sep-14 by Spacewatch at Kitt Peak
Reference: 20080122/Numbers.arcLast Updated: 2008-01-28

Alternate Designations
 2006 RA52 = 2002 XR43 = 2004 FC161 = 2004 FP165 
Ephemeris | Orbit Diagram | Orbital Elements | Mission Design | Physical Parameters | Discovery Circumstances ]
ABOUT SSD CREDITS/AWARDS PRIVACY/COPYRIGHT GLOSSARY LINKS
FirstGov 2021-May-11 19:47 UT
(server date/time)  
NASA Home Page
Site Manager:   Ryan S. Park
Webmaster  Alan B. Chamberlin